Location: Newark
(25.6108°S, 54.5803°W)
Time: 21:31:43
(UTC+00:00)

Courier 1B - Pass Details

Date: 27 October 2020
Orbit: 962 x 1209 km, 28.3° (Epoch: 24 November)

Event Time Altitude Azimuth Distance (km) Brightness Sun altitude
Rises 03:51:24 0° 275° (W) 4,065 - -50.8°
Reaches altitude 10° 03:54:13 10° 274° (W) 3,124 - -50.7°
Maximum altitude 04:02:05 77° 187° (S) 1,240 - -50.3°
Drops below altitude 10° 04:09:59 10° 101° (E) 3,137 - -49.7°
Exits shadow 04:10:57 - 100° (E) 3,456 10.6 -49.7°
Sets 04:12:49 0° 99° (E) 4,084 11.0 -49.5°
